Regional Weather Roundup
Issued by NWS

Home | Current Version | Previous Version | Graphics & Text | Print | Product List | Glossary On
Versions: 1 2 3 4 5 6 7 8 9 10 11 12 13 14 15 16 17 18 19 20 21 22 23 24 25 26 27 28 29 30 31 32 33 34 35 36 37 38 39 40 41 42 43 44 45 46 47 48 49 50
000
ASUS43 KOAX 300310
RWRNE

WEATHER ROUNDUP FOR NEBRASKA
NATIONAL WEATHER SERVICE OMAHA NE
1000 PM CDT MON MAY 29 2017

NOTES: SATELLITE DATA IS BEING USED TO AUGMENT CLOUD COVER ABOVE
       12000 FEET.
       "FAIR" INDICATES FEW OR NO CLOUDS BELOW 12,000 FEET WITH NO
       SIGNIFICANT WEATHER AND/OR OBSTRUCTIONS TO VISIBILITY.

  * THESE STATIONS DO NOT REPORT WEATHER SUCH AS RAIN...SNOW OR FOG.

NEZ001>004-019>022-054>056-300400-
NEBRASKA PANHANDLE

CITY           SKY/WX    TMP DP  RH WIND       PRES   REMARKS
SCOTTSBLUFF    CLEAR     58  37  45 NE5       30.15R
ALLIANCE       CLEAR     54  33  45 NW9       30.12S
CHADRON        CLEAR     50  44  80 CALM      30.12R
GORDON         FAIR      52  38  58 N5        30.12R
KIMBALL        CLEAR     55  43  64 NW3       30.19S
SIDNEY         CLEAR     52  40  63 N5        30.17R
$$

NEZ057>060-069>072-079>082-300400-
SOUTHWEST NEBRASKA

CITY           SKY/WX    TMP DP  RH WIND       PRES   REMARKS
NORTH PLATTE   CLEAR     54  42  64 E3        30.09R
IMPERIAL       CLOUDY    63  40  42 NW3       30.12R
LEXINGTON      CLEAR     61  38  43 NE5       30.08R
MCCOOK         PTCLDY    63  42  46 NE6       30.09R
OGALLALA       CLEAR     56  40  55 N8        30.11S
$$

NEZ005>010-023>029-035>040-094-300400-
NORTH CENTRAL NEBRASKA

CITY           SKY/WX    TMP DP  RH WIND       PRES   REMARKS
VALENTINE      CLEAR     52  38  58 W5        30.07R
AINSWORTH      CLEAR     58  38  47 CALM      30.08R
BROKEN BOW     CLEAR     52  38  58 N6        30.07R
O`NEILL        PTCLDY    58  37  44 W3        30.05R
ORD            CLEAR     51  38  60 SW3       30.05R
THEDFORD       CLEAR     56  38  50 CALM      30.10R
$$

NEZ041-046>049-061>064-073>077-083>087-300400-
SOUTH CENTRAL NEBRASKA

CITY           SKY/WX    TMP DP  RH WIND       PRES   REMARKS
GRAND ISLAND   CLEAR     59  39  47 NE6       30.06R
AURORA         CLEAR     61  37  40 NE5       30.06R
HASTINGS       CLEAR     60  41  49 NE3       30.07R
HEBRON         CLEAR     63  42  46 CALM      30.05R
HOLDREGE       CLEAR     60  38  44 E5        30.08R
KEARNEY *      CLEAR     61  37  41 N6        30.07S
YORK           CLEAR     59  37  44 CALM      30.06R
$$

NEZ011>018-030>034-042>045-300400-
NORTHEAST NEBRASKA

CITY           SKY/WX    TMP DP  RH WIND       PRES   REMARKS
NORFOLK        CLEAR     51  43  74 SW5       30.02S
ALBION         CLEAR     54  40  58 CALM      30.05R
BLAIR          CLEAR     62  42  48 N5        30.03S
FREMONT        CLEAR     61  40  45 CALM      30.03S
TEKAMAH        PTCLDY    57  41  55 NW6       30.02R
WAYNE          CLEAR     54  42  64 CALM      30.02S
$$

NEZ050>053-065>068-078-088>093-300400-
SOUTHEAST NEBRASKA

CITY           SKY/WX    TMP DP  RH WIND       PRES   REMARKS
LINCOLN        CLEAR     59  41  51 N5        30.05R
OMAHA EPPLEY   PTCLDY    63  43  48 CALM      30.02R
BEATRICE       CLEAR     58  42  54 N7        30.04R
NEBRASKA CITY  CLEAR     64  34  32 NW6       30.03R
PLATTSMOUTH    CLEAR     64  40  42 NW3       30.03R
$$

NEZ044-045-051>053-067-300400-
OMAHA AREA

CITY           SKY/WX    TMP DP  RH WIND       PRES   REMARKS
OMAHA EPPLEY   PTCLDY    63  43  48 CALM      30.02R
BLAIR          CLEAR     62  42  48 N5        30.03S
FREMONT        CLEAR     61  40  45 CALM      30.03S
MILLARD        PTCLDY    66  43  42 CALM      30.03R
OFFUTT AFB     PTCLDY    62  43  49 NW6       30.01R
PLATTSMOUTH    CLEAR     64  40  42 NW3       30.03R
WAHOO          FAIR      61  38  42 NW3       30.04S
$$



USA.gov is the U.S. government's official web portal to all federal, state and local government web resources and services.